2022-058B (52786 NORAD) Tracking and Keplerian Element Data
This shows tracking and keplerian element data for the satellite.
Feedback or suggestion? Click here.
Element | Value |
Catalog | 52786 |
Name | 2022-058B |
Epoch Orbit | 593 |
Epoch Day | 193.14088576 |
Epoch Year | 2022 |
RAAN | 74.6606 |
Inclination | 50.0038 |
Eccentricity | 0.0012079 |
Argument of Perigee | 82.5176 |
Mean Anonmoly | 277.7139 |
Mean Motion | 14.8656692 |
Decay Rate | 1.365E-05 |
L1 | 1 52786U 22058B 22193.14088576 .00001365 00000+0 17842-3 0 9990 |
L2 | 2 52786 50.0038 74.6606 0012079 82.5176 277.7139 14.86566920 5933 |
Live tracking and technical data element details for 2022-058B (NORAD 52786). 2022-058B can be tracked NOW for your location showing map with azimuth and elevation plus other details from your city location.
Track the satellite on the map from your city or location and see movement details for azimuth, elevation, latitude, longitude, range, height, and movement on the map or in text.
IsCatalogInMostPopularTable: catalog: 52786, numindb: 3
Update: records affected: 1
GetName: 52786 2022-058B
Hit Count: updated at: Sun, 14 Aug 2022 01:20:13 GMT